Back to catalog

STARLINK-32112

AliveCommunicationsVLEO
NORAD 60136·PAYLOAD·🇺🇸 United States

Launched Jun 27, 2024 from Cape Canaveral Space Force Station

Loading…

Next Passes (next 24 hours)

TLE

FreshSource: CelesTrak SupGP

Epoch: Sep 15, 2026, 02:45 UTC

1 60136C 24120B   26258.11506944  .00003925  00000+0  11596-3 0  2589
2 60136  53.1575 157.0084 0001263  71.8387 201.4137 15.34390123    15

Track STARLINK-32112 in real time with AllMySat

Download on the App Store